Date,TemperatureHighF,TemperatureAvgF,TemperatureLowF,DewpointHighF,DewpointAvgF,DewpointLowF,HumidityHigh,HumidityAvg,HumidityLow,PressureMaxIn,PressureMinIn,WindSpeedMaxMPH,WindSpeedAvgMPH,GustSpeedMaxMPH,PrecipitationSumIn
2013-1-1,49.1,42.9,37.9,36.8,31.2,24.7,73,63,53,29.97,29.85,4,2,8,0.00
2013-1-2,45.5,38.6,32.9,31.8,28.6,19.4,78,67,54,30.17,29.93,4,2,5,0.00
2013-1-3,43.3,33.5,24.8,22.9,18.3,14.6,80,54,36,30.19,30.10,5,2,11,0.00
2013-1-4,51.6,36.7,23.5,22.8,19.1,16.4,79,52,27,30.18,30.07,8,3,11,0.00
2013-1-5,56.7,42.0,24.6,35.0,19.5,14.9,87,44,21,30.31,30.13,5,2,7,0.01
2013-1-6,57.4,44.4,37.9,36.4,31.3,26.3,87,63,33,30.14,29.99,11,3,13,0.00
2013-1-7,55.6,41.2,28.4,32.0,28.2,23.7,85,62,34,30.38,30.10,9,2,11,0.00
2013-1-8,53.8,36.9,24.6,36.4,28.9,21.2,92,74,49,30.38,30.30,7,2,11,0.00
2013-1-9,61.9,46.1,28.9,48.9,39.6,26.9,99,79,56,30.34,30.23,7,2,8,0.00
2013-1-10,66.2,49.3,35.2,45.3,31.9,27.1,90,54,25,30.52,30.34,5,2,6,0.00
2013-1-11,44.1,41.7,36.1,43.0,37.6,29.3,99,86,67,30.42,30.05,3,2,8,0.07
2013-1-12,54.1,45.9,41.7,49.7,44.9,41.5,99,96,85,30.13,30.05,4,1,4,0.00
2013-1-13,70.3,56.6,46.2,62.7,54.5,45.4,99,93,76,30.08,29.95,6,2,8,0.00
2013-1-14,63.5,55.4,41.7,62.7,54.1,40.7,99,95,91,30.23,29.95,9,3,9,0.25
2013-1-15,41.2,38.9,37.6,40.2,38.6,37.3,99,99,96,30.27,30.08,4,2,7,1.16
2013-1-16,44.1,39.7,36.0,43.5,39.2,35.2,99,98,97,30.08,29.83,8,2,11,0.45
2013-1-17,45.7,39.2,32.9,44.9,38.8,32.6,99,98,96,30.07,29.93,4,1,8,0.70
2013-1-18,50.7,35.3,27.9,41.6,29.1,24.1,99,81,44,30.43,30.05,7,1,7,0.46
2013-1-19,57.7,40.8,28.0,31.5,27.7,23.3,89,62,35,30.38,29.99,8,4,11,0.06
2013-1-20,64.2,46.4,33.6,33.4,25.2,16.3,79,48,21,30.00,29.83,14,4,19,0.00
2013-1-21,61.2,45.0,34.3,29.6,11.7,0.8,78,27,19,29.91,29.64,12,7,20,6.52
2013-1-22,33.6,33.2,32.7,3.3,2.8,2.4,28,27,26,29.79,29.79,4,4,6,0.00
2013-1-25,24.1,19.9,13.5,16.8,10.4,3.9,82,67,43,30.32,29.91,4,2,4,0.00
2013-1-26,39.0,30.6,21.4,24.0,21.5,17.3,84,70,54,30.31,29.92,4,1,4,0.01
2013-1-27,42.4,32.5,23.0,24.2,21.0,18.2,85,64,40,30.44,30.27,6,2,6,0.00
2013-1-28,51.3,41.9,32.5,42.2,38.0,29.9,95,87,70,30.25,29.94,6,2,6,0.04
2013-1-29,77.7,60.2,40.1,55.9,49.9,39.6,98,72,47,29.99,29.85,5,3,5,0.00
2013-1-30,71.1,64.8,58.5,65.0,61.0,55.9,99,88,75,29.79,29.18,14,6,14,0.63
2013-1-31,61.2,42.5,30.2,56.9,17.7,11.8,94,39,19,30.14,29.17,19,11,19,0.48
2013-2-1,35.6,29.0,17.8,28.0,5.8,-5.7,92,40,21,30.38,29.80,21,6,25,0.00
2013-2-2,35.8,25.2,15.4,26.5,11.5,1.7,89,59,27,30.38,30.00,8,2,11,0.00
2013-2-3,44.1,32.7,24.4,30.1,23.1,14.1,90,70,45,30.00,29.83,13,3,16,0.02
2013-2-4,38.7,31.6,21.0,19.9,15.5,10.3,71,52,38,30.11,29.91,8,3,12,0.00
2013-2-5,60.4,42.1,29.8,34.0,27.8,18.7,77,58,35,29.93,29.84,12,2,14,0.00
2013-2-6,59.5,42.1,27.9,37.3,27.3,21.7,89,60,27,30.34,29.93,12,2,12,0.00
2013-2-7,42.4,36.5,28.8,30.4,25.8,22.8,80,66,49,30.43,30.16,6,2,6,0.00
2013-2-8,52.5,40.8,33.4,41.1,33.1,21.7,98,76,50,30.15,29.79,20,4,23,0.20
2013-2-9,52.3,38.8,27.9,21.9,14.5,8.5,60,39,22,30.37,29.98,14,4,15,0.00
2013-2-10,50.2,35.4,20.3,29.9,16.1,10.1,68,47,25,30.49,30.26,8,2,10,0.01
2013-2-11,56.3,46.8,36.0,52.2,42.2,26.2,99,85,32,30.24,29.80,7,3,14,0.07
2013-2-12,64.0,52.6,43.9,29.7,24.8,18.3,54,35,21,30.01,29.85,15,4,17,0.00
2013-2-13,45.0,40.3,34.5,38.3,32.6,28.0,99,75,55,29.94,29.66,5,2,7,0.04
2013-2-14,57.0,40.1,27.0,40.6,27.8,22.3,98,68,27,30.03,29.81,12,2,12,0.01
2013-2-15,65.5,45.4,27.3,41.3,30.9,23.2,96,63,26,30.06,29.89,10,3,14,0.07
2013-2-16,39.9,36.2,27.1,39.1,26.8,11.9,98,70,45,30.02,29.85,11,3,11,0.06
2013-2-17,35.1,28.0,22.3,14.6,3.2,-5.4,63,36,23,30.22,29.88,17,7,21,0.01
2013-2-18,52.2,34.3,15.6,21.9,11.2,0.3,64,40,21,30.38,30.19,10,3,11,0.00
2013-2-19,48.2,37.6,30.0,43.9,30.0,19.7,96,75,42,30.18,29.78,9,3,14,0.11
2013-2-20,50.2,39.1,29.8,20.5,12.7,6.4,49,34,23,30.15,29.89,12,5,17,0.00
2013-2-21,49.1,35.3,23.4,17.8,13.9,11.0,63,43,25,30.31,30.13,11,3,14,0.00
2013-2-22,39.4,34.6,31.3,28.9,22.0,15.8,78,60,50,30.37,30.21,4,2,8,0.01
2013-2-23,35.1,34.0,33.8,31.9,31.0,28.9,92,88,78,30.19,30.06,3,1,3,0.00
2013-2-24,61.2,42.2,32.0,31.6,23.2,14.3,80,51,19,30.12,29.92,10,3,11,0.00
2013-2-25,60.3,35.7,25.2,21.5,18.7,14.3,69,52,20,30.20,29.65,7,2,8,15.13
2013-2-26,43.0,36.0,27.7,42.5,31.2,18.2,99,83,62,29.89,29.28,9,2,10,0.93
2013-2-27,42.4,41.6,39.4,42.2,41.3,39.1,99,99,99,29.32,29.25,4,1,4,0.00
2013-2-28,61.2,44.9,35.2,29.0,26.0,14.3,76,49,19,30.22,29.90,14,5,64,0.00
2013-3-1,45.0,38.1,30.7,31.6,26.4,23.7,80,63,49,30.12,29.98,10,3,13,0.00
2013-3-2,39.9,36.0,32.5,24.6,21.0,16.9,65,54,47,30.11,30.04,9,2,12,0.00
2013-3-3,48.9,36.2,24.6,21.4,16.0,11.7,68,45,27,30.15,30.02,119,22,119,1.58
2013-3-4,54.0,36.8,24.4,15.6,11.1,4.5,55,36,21,30.26,30.14,14,4,17,0.00
2013-3-5,53.2,39.6,28.6,35.8,23.3,12.2,96,55,26,30.28,29.95,8,2,8,0.15
2013-3-6,33.1,33.0,32.9,32.3,32.2,32.1,97,97,96,29.95,29.78,0,0,0,0.00
2013-3-7,48.0,40.5,29.5,34.9,28.7,25.4,86,64,42,30.33,30.07,16,6,16,0.40
2013-3-8,49.1,41.4,34.5,28.1,25.4,21.4,67,53,40,30.47,30.36,9,5,9,0.00
2013-3-9,66.2,44.1,29.3,28.2,24.3,21.4,81,52,18,30.56,30.48,5,2,5,0.00
2013-3-10,68.9,58.6,29.5,35.9,26.1,22.4,81,31,18,30.54,30.42,8,3,10,0.00
2013-3-11,64.6,49.9,37.0,51.3,41.0,28.7,93,73,45,30.44,30.16,8,2,9,0.00